{"data":{"norad_id":67514,"epoch":"2026-05-24T14:50:55.736160Z","epoch_age_seconds":108731,"freshness":"FRESH","line1":"1 67514U 26012X   26144.61870065  .00014900  00000+0  54970-3 0  9995","line2":"2 67514  43.0009 245.6475 0001485 274.3199  85.7483 15.27591037 19372","mean_motion":15.27591037,"eccentricity":0.0001485,"inclination_deg":43.0009,"raan_deg":245.6475,"arg_perigee_deg":274.3199,"mean_anomaly_deg":85.7483,"bstar":0.0005497,"rev_number":1937,"period_min":94.266067626842,"perigee_km":481.99716626255,"apogee_km":484.03492871765,"semimajor_km":6861.1530474901,"source":"CELESTRAK","updated_at":"2026-05-25T13:38:21.601260Z"}}